DG7YEO-13 Weather Reports


time (UTC)temp
F
wind
direction
speed
knots
gust
knots
rain 1hr
in
rain 24hr
in
rain mn
in
humidity
%
barometer
mb
20260506134705 49 302 0.9 6.1 0.02 0.94 0.94 95 1007.6
20260506133205 49 260 0.0 2.6 0.02 0.93 0.93 95 1007.6
20260506131704 49 302 0.0 2.6 0.01 0.92 0.92 95 1007.5
20260506130204 49 296 0.9 3.5 0.02 0.92 0.92 95 1007.5
20260506124705 49 11 0.0 2.6 0.02 0.92 0.92 95 1007.4
20260506123205 49 319 0.9 3.5 0.02 0.91 0.91 95 1007.4
20260506121704 48 297 0.9 3.5 0.03 0.91 0.91 95 1007.3
20260506120205 48 242 0.9 3.5 0.03 0.90 0.90 95 1007.1
20260506114704 48 346 0.9 3.5 0.04 0.90 0.90 95 1007.0
20260506113205 48 281 0.9 2.6 0.03 0.89 0.89 95 1007.1
20260506111704 47 319 0.9 3.5 0.02 0.88 0.88 95 1007.1
20260506110205 47 315 0.9 2.6 0.01 0.87 0.87 95 1006.9
20260506104705 47 304 0.9 5.2 0.00 0.86 0.86 95 1006.9
20260506103205 47 121 0.9 3.5 0.00 0.86 0.86 95 1006.8
20260506101705 47 319 0.9 4.3 0.00 0.86 0.86 95 1006.7
20260506100205 47 300 0.9 5.2 0.00 0.86 0.86 95 1006.6
20260506094705 47 240 0.9 3.5 0.00 0.86 0.86 96 1006.5
20260506093205 47 302 0.0 3.5 0.00 0.86 0.86 96 1006.4
20260506091705 47 266 0.9 5.2 0.00 0.86 0.86 96 1006.4
20260506090205 47 287 0.9 4.3 0.00 0.86 0.86 96 1006.3
20260506084705 47 308 0.9 4.3 0.01 0.86 0.86 96 1006.2
20260506083205 47 319 0.9 4.3 0.02 0.86 0.86 96 1006.0
20260506081705 47 298 0.9 2.6 0.04 0.86 0.86 96 1006.0
20260506080206 47 305 0.9 3.5 0.06 0.86 0.86 96 1005.8
20260506073205 47 311 0.9 4.3 0.09 0.84 0.84 96 1005.7
20260506071704 47 311 0.9 4.3 0.10 0.83 0.82 96 1005.7
20260506070205 47 304 0.9 4.3 0.09 0.82 0.80 96 1005.6
20260506061705 48 319 0.0 2.6 0.06 0.79 0.72 97 1005.3
20260506060205 48 300 0.0 3.5 0.07 0.77 0.70 97 1005.2
20260506050205 49 315 0.0 2.6 0.09 0.71 0.63 96 1005.2
20260506044705 49 290 0.0 2.6 0.08 0.68 0.60 96 1005.1
20260506043205 49 315 0.0 4.3 0.09 0.66 0.58 97 1005.1
20260506041705 49 301 0.9 4.3 0.07 0.64 0.56 96 1005.1
20260506040206 49 319 0.9 3.5 0.07 0.62 0.53 96 1005.1
20260506034705 49 232 0.0 2.6 0.08 0.60 0.51 96 1005.1
20260506033205 49 88 0.0 2.6 0.08 0.58 0.50 97 1005.2
20260506031705 49 282 0.9 3.5 0.08 0.57 0.48 97 1005.3
20260506030205 50 279 0.0 1.7 0.07 0.54 0.46 97 1005.4
20260506024704 49 301 0.9 3.5 0.07 0.52 0.44 96 1005.6
20260506023205 50 180 0.0 3.5 0.07 0.50 0.42 96 1005.6
20260506021714 50 306 0.9 3.5 0.07 0.48 0.40 96 1005.7
20260506020205 50 279 0.0 2.6 0.09 0.47 0.39 96 1005.8
20260506014704 50 321 0.0 2.6 0.11 0.45 0.37 96 1005.9
20260506013205 50 319 0.0 2.6 0.13 0.43 0.35 96 1006.0
20260506011705 50 315 0.0 3.5 0.13 0.40 0.32 96 1006.1
20260506010205 50 315 0.0 2.6 0.12 0.38 0.29 96 1006.0
20260506004705 50 315 0.0 2.6 0.12 0.35 0.26 96 1006.1
20260506003205 51 5 0.9 6.1 0.10 0.31 0.22 96 1006.1
20260506001705 51 318 0.9 2.6 0.12 0.28 0.19 96 1006.3
20260506000205 51 325 0.0 3.5 0.11 0.25 0.16 96 1006.3
20260505234705 51 294 0.9 3.5 0.11 0.23 0.14 96 1006.6
20260505233205 51 312 0.0 2.6 0.09 0.20 0.11 96 1006.6
20260505231704 52 299 0.9 4.3 0.06 0.15 0.06 96 1006.7
20260505230205 52 331 0.9 5.2 0.05 0.15 0.05 96 1006.8
20260505224705 52 318 0.9 4.3 0.03 0.13 0.03 96 1006.8
20260505223205 52 315 0.0 4.3 0.02 0.12 0.02 96 1006.9
20260505221705 52 301 0.0 4.3 0.00 0.10 0.00 96 1007.0
20260505220205 52 309 0.9 1.7 0.00 0.11 0.11 95 1007.1
20260505214705 52 293 0.0 3.5 0.00 0.11 0.11 95 1007.3
20260505213205 52 338 0.0 2.6 0.00 0.11 0.11 95 1007.4
20260505211705 52 317 0.0 1.7 0.00 0.12 0.11 95 1007.5
20260505210208 52 312 0.0 4.3 0.00 0.12 0.11 95 1007.6
20260505204705 52 312 0.0 3.5 0.00 0.12 0.11 95 1007.7
20260505203205 52 327 0.9 2.6 0.00 0.12 0.11 95 1007.7
20260505201705 53 193 0.0 1.7 0.00 0.12 0.11 94 1007.8
20260505200205 53 315 0.0 2.6 0.00 0.12 0.11 94 1007.8
20260505194705 53 333 0.0 3.5 0.00 0.12 0.11 94 1007.7
20260505193205 53 303 0.9 4.3 0.00 0.12 0.11 93 1007.8
20260505191705 53 11 0.9 4.3 0.00 0.12 0.11 93 1007.7
20260505190205 53 297 0.0 2.6 0.00 0.12 0.11 93 1007.6
20260505184704 53 307 0.0 2.6 0.00 0.12 0.11 93 1007.6
20260505183204 53 132 0.0 2.6 0.00 0.12 0.11 93 1007.5
20260505181705 53 315 0.9 2.6 0.00 0.12 0.11 93 1007.6
20260505180205 53 327 0.0 4.3 0.00 0.12 0.11 92 1007.7
20260505174705 53 298 0.9 4.3 0.00 0.12 0.11 92 1007.7
20260505173205 53 300 0.0 3.5 0.00 0.12 0.11 92 1007.8
20260505171705 53 0 0.9 3.5 0.00 0.12 0.11 91 1007.8
20260505170206 53 348 0.9 3.5 0.00 0.12 0.11 91 1007.8
20260505164705 53 284 0.0 3.5 0.00 0.12 0.11 91 1007.9
20260505163205 53 306 0.0 3.5 0.00 0.12 0.11 91 1008.0
20260505161705 53 319 0.0 3.5 0.00 0.12 0.11 91 1008.0
20260505160205 53 131 0.0 2.6 0.00 0.12 0.11 91 1007.9
20260505153205 53 314 0.9 3.5 0.00 0.12 0.11 90 1008.3
20260505151705 53 262 0.9 4.3 0.00 0.12 0.11 90 1008.3
20260505150205 53 286 0.9 3.5 0.00 0.12 0.11 89 1008.5
20260505140205 54 309 0.0 2.6 0.00 0.12 0.11 89 1008.7